Погода в Кайенне

Французская Гвиана     4°55′02″N   52°19′42″W
темп.,
°C
ветер,
м/с
пор.,
м/с
влажн.,
%
обл.,
%
осадки,
мм/ч
давл.,
гПа
погр.,
м
18 апреля, вс
вс1800:00+27св91075100 0.4 1013950
03:00+27св9970100 0.7 1011915
06:00+27св886969 0.3 10121014
09:00+27св7871100 0.6 10141112
12:00+27всв777063 0.4 1014879
15:00+28св5666100 0.5 1011812
18:00+27св7770100 0.0 1011843
21:00+27св6773100 0.0 1012845
19 апреля, пн
пн1900:00+27св6774100 0.1 1013819
03:00+27св777590 0.7 1011837
06:00+27св6673100 1.9 1012825
09:00+26св6776100 6.9 1014741
12:00+27св6775100 2.9 1014821
15:00+27св677315 3.8 1011926
18:00+27св677574 1.0 1011895
21:00+27св5676100 3.4 1013817
20 апреля, вт
вт2000:00+26всв6782100 4.0 1013681
03:00+26св678399 7.9 1011639
06:00+26всв668377 4.4 1012620
09:00+25в5687100 9.6 1015486
12:00+25вюв6689100 7.3 1015507
15:00+26вюв5677100 9.9 1012767
18:00+26в4580100 0.8 1012703
21:00+27всв5675100 0.8 1013811
21 апреля, ср
ср2100:00+27всв5676100 0.1 1014929
03:00+27всв5576100 0.6 1012724
06:00+26св4577100 2.8 1012668
09:00+26в4480100 6.3 1014387
12:00+27всв4578100 3.0 1014530
15:00+27всв4476100 3.8 1011519
18:00+27св457485 0.0 1011704
21:00+27св667891 0.0 1013801
22 апреля, чт
чт2200:00+26всв5683100 3.1 1013525
03:00+26всв6880100 10.5 1011556
06:00+26всв7884100 7.1 1012647
09:00+27всв7877100 12.4 1014785
12:00+27всв687697 0.1 1013801
15:00+28всв787597 0.1 1010984
18:00+28всв787783 0.2 1010997
21:00+27всв897799 0.7 1012936